Flag for U.S.A. Weather past 2 weeks in Key West, Florida, U.S.A.

Now
84 °F

Clear.


Feels Like: 93 °F
Forecast: 84 / 90 °F
Wind: 13 mph from South

Location: Key West International Airport

Current Time: Aug 28, 2014 at 5:46:04 AM

Latest Report: Aug 28, 2014 at 4:53 AM


Visibility: 10 mi

Pressure: 29.93 "Hg

Humidity: 77%

Dew point: 76 °F

Location of Key WestLocation

Historic Weather in Key West — Graph

°F

Key West temperature yesterday

Maximum temperature yesterday: 90 °F (at 11:01 AM)
Minimum temperature yesterday: 80 °F (at 11:53 PM)
Average temperature yesterday: 86 °F

Past Weeks' High & Low Weather Summary

 TemperatureHumidityPressure
High92 °F (Aug 17, 2:53 PM)90% (Aug 27, 11:53 PM)30.11 "Hg (Aug 27, 11:53 PM)
Low80 °F (Aug 27, 11:53 PM)46% (Aug 23, 3:53 PM)29.74 "Hg (Aug 25, 3:53 PM)
Average87 °F68%29.98 "Hg
* Reported Aug 13 3:53 AM — Aug 28 3:53 AM, Key West, Weather by CustomWeather, © 2014

Note: Actual official high and low records may vary slightly from our data, if they occured in-between our weather recording intervals... More about our weather records

Advertising

Key West weather history for previous 24 hours

 ConditionsComfort  
Time TempWeatherWind HumidityBarometerVisibility
3:53 AM
Aug 28
84 °FPassing clouds.13 mph77%29.92 "Hg10 mi
2:53 AM84 °FClear.14 mph77%29.93 "Hg10 mi
1:53 AM83 °FPartly cloudy.12 mph79%29.95 "Hg10 mi
12:53 AM82 °FPassing clouds.9 mph82%29.97 "Hg10 mi
11:53 PM
Aug 27
80 °FLight rain. Passing clouds.12 mph90%29.98 "Hg10 mi
10:53 PM81 °FOvercast.21 mph85%29.97 "Hg10 mi
9:53 PM86 °FPartly cloudy.14 mph75%29.95 "Hg10 mi
8:53 PM87 °FClear.17 mph69%29.93 "Hg10 mi
7:53 PM87 °FPartly sunny.15 mph69%29.92 "Hg10 mi
6:53 PM87 °FPartly sunny.16 mph69%29.91 "Hg10 mi
5:53 PM88 °FPartly sunny.16 mph67%29.90 "Hg10 mi
4:53 PM89 °FPassing clouds.14 mph70%29.89 "Hg10 mi
3:53 PM89 °FSunny.12 mph70%29.90 "Hg10 mi
2:53 PM88 °FSunny.17 mph70%29.91 "Hg10 mi
2:00 PM88 °FBroken clouds.15 mph73%29.93 "Hg10 mi
12:53 PM84 °FPartly sunny.9 mph77%29.93 "Hg10 mi
11:53 AM85 °FBroken clouds.10 mph77%29.93 "Hg10 mi
11:01 AM90 °FBroken clouds.10 mph63%29.93 "Hg10 mi
9:53 AM87 °FPassing clouds.9 mph69%29.92 "Hg10 mi
8:53 AM84 °FLight rain. Partly sunny.8 mph77%29.91 "Hg10 mi
7:53 AM84 °FPassing clouds.9 mph74%29.89 "Hg10 mi
6:53 AM83 °FClear.7 mph77%29.88 "Hg10 mi
5:53 AM84 °FClear.10 mph72%29.86 "Hg10 mi
Weather by CustomWeather, © 2014

See weather overviewHow to use our weather pages